Location: Oshawa
(43.9000°N, 78.8670°W)
Time: 23:50:40
(UTC-04:00)

CARTOSAT-1 - Pass Details

Date: 20 August 2017
Orbit: 616 x 621 km, 97.9° (Epoch: 25 September)

Event Time Altitude Azimuth Distance (km) Brightness Sun altitude
Exits shadow 22:53:14 50° 39° (NE) 800 4.1 -25.0°
Drops below altitude 10° 22:56:51 10° 356° (N) 1,997 6.9 -25.4°
Sets 22:59:04 0° 352° (N) 2,907 7.9 -25.6°
